Orbital Elements at Epoch 2459000.5 (2020-May-31.0) TDB
Reference: JPL 26 (heliocentric ecliptic J2000)
Element | Value | Uncertainty (1-sigma) | Units |
e | .5229822871451816 | 4.4735e-07 | |
a | 1.409043021220126 | 1.4786e-08 | au |
q | .6721384792964679 | 6.3591e-07 | au |
i | 9.124180029803057 | 6.2825e-05 | deg |
node | 154.7825450515437 | 2.1085e-05 | deg |
peri | 79.53730142207621 | 7.7869e-05 | deg |
M | 334.3476469014106 | 1.2616e-05 | deg |
tp | 2459044.032089689737 (2020-Jul-13.53208969) | 2.1532e-05 | TDB |
period | 610.9206523111204 1.67 | 9.6163e-06 2.633e-08 | d yr |
n | .5892745623152786 | 9.2756e-09 | deg/d |
Q | 2.145947563143784 | 2.2519e-08 | au |
|
| | Orbit Determination Parameters
Additional Information
|